| time (UTC) | temp F | wind direction | speed knots | gust knots | rain 1hr in | rain 24hr in | rain mn in | humidity % | barometer mb |
| 20260906134330 | 84 | 312 | 2.6 | 6.1 | 0.00 | 0.13 | 0.00 | 82 | 1011.1 |
| 20260906133830 | 83 | 311 | 3.5 | 7.0 | 0.00 | 0.13 | 0.00 | 84 | 1011.2 |
| 20260906132830 | 82 | 312 | 3.5 | 8.7 | 0.00 | 0.13 | 0.00 | 85 | 1011.2 |
| 20260906131829 | 82 | 291 | 1.7 | 5.2 | 0.00 | 0.13 | 0.00 | 85 | 1011.3 |
| 20260906131329 | 82 | 312 | 1.7 | 5.2 | 0.00 | 0.13 | 0.00 | 85 | 1011.3 |
| 20260906130829 | 82 | 278 | 1.7 | 5.2 | 0.00 | 0.13 | 0.00 | 86 | 1011.4 |
| 20260906125329 | 80 | 310 | 1.7 | 5.2 | 0.00 | 0.13 | 0.00 | 87 | 1011.5 |
| 20260906124833 | 80 | 0 | 1.7 | 6.1 | 0.00 | 0.13 | 0.00 | 88 | 1011.4 |
| 20260906124328 | 79 | 185 | 1.7 | 6.1 | 0.00 | 0.13 | 0.00 | 88 | 1011.3 |
| 20260906123829 | 79 | 265 | 1.7 | 5.2 | 0.00 | 0.13 | 0.00 | 90 | 1011.3 |
| 20260906123329 | 78 | 0 | 0.9 | 3.5 | 0.00 | 0.13 | 0.00 | 91 | 1011.3 |
| 20260906122829 | 78 | 0 | 0.9 | 2.6 | 0.00 | 0.13 | 0.00 | 92 | 1011.3 |
| 20260906122328 | 78 | 201 | 0.0 | 1.7 | 0.00 | 0.13 | 0.00 | 93 | 1011.4 |
| 20260906121828 | 77 | 0 | 0.0 | 1.7 | 0.00 | 0.13 | 0.00 | 94 | 1011.4 |
| 20260906121328 | 77 | 201 | 0.0 | 1.7 | 0.00 | 0.13 | 0.00 | 94 | 1011.4 |
| 20260906120330 | 76 | 0 | 0.0 | 1.7 | 0.00 | 0.13 | 0.00 | 94 | 1011.4 |
| 20260906115830 | 76 | 0 | 0.0 | 1.7 | 0.00 | 0.13 | 0.00 | 94 | 1011.3 |
| 20260906115330 | 76 | 196 | 0.0 | 1.7 | 0.00 | 0.13 | 0.00 | 94 | 1011.2 |
| 20260906114829 | 76 | 0 | 0.0 | 0.0 | 0.00 | 0.13 | 0.00 | 94 | 1011.2 |
| 20260906113830 | 76 | 0 | 0.0 | 0.0 | 0.00 | 0.13 | 0.00 | 94 | 1011.1 |
| 20260906113330 | 76 | 0 | 0.0 | 0.0 | 0.00 | 0.13 | 0.00 | 94 | 1010.8 |
| 20260906112334 | 76 | 0 | 0.9 | 1.7 | 0.00 | 0.13 | 0.00 | 94 | 1010.7 |
| 20260906111830 | 76 | 199 | 0.9 | 1.7 | 0.00 | 0.13 | 0.00 | 94 | 1010.6 |
| 20260906111330 | 76 | 205 | 0.0 | 1.7 | 0.00 | 0.13 | 0.00 | 94 | 1010.6 |
| 20260906110835 | 76 | 211 | 0.0 | 1.7 | 0.00 | 0.13 | 0.00 | 94 | 1010.6 |
| 20260906110330 | 76 | 0 | 0.0 | 1.7 | 0.00 | 0.13 | 0.00 | 94 | 1010.6 |
| 20260906105830 | 76 | 0 | 0.0 | 0.0 | 0.00 | 0.13 | 0.00 | 94 | 1010.4 |
| 20260906105329 | 76 | 0 | 0.0 | 0.0 | 0.00 | 0.13 | 0.00 | 94 | 1010.4 |
| 20260906104830 | 76 | 0 | 0.0 | 0.9 | 0.00 | 0.13 | 0.00 | 94 | 1010.4 |
| 20260906104329 | 76 | 0 | 0.0 | 0.9 | 0.00 | 0.13 | 0.00 | 94 | 1010.3 |
| 20260906103831 | 76 | 0 | 0.9 | 1.7 | 0.00 | 0.13 | 0.00 | 94 | 1010.3 |
| 20260906102831 | 76 | 0 | 0.0 | 1.7 | 0.00 | 0.13 | 0.00 | 94 | 1010.1 |
| 20260906102330 | 76 | 0 | 0.0 | 1.7 | 0.00 | 0.13 | 0.00 | 94 | 1010.1 |
| 20260906101830 | 76 | 202 | 0.0 | 2.6 | 0.00 | 0.13 | 0.00 | 94 | 1010.2 |
| 20260906101329 | 76 | 194 | 0.0 | 2.6 | 0.00 | 0.13 | 0.00 | 94 | 1010.2 |
| 20260906100331 | 76 | 205 | 0.0 | 1.7 | 0.00 | 0.13 | 0.00 | 94 | 1010.2 |
| 20260906095830 | 76 | 204 | 0.0 | 1.7 | 0.00 | 0.13 | 0.00 | 94 | 1010.2 |
| 20260906095330 | 76 | 0 | 0.0 | 1.7 | 0.00 | 0.13 | 0.00 | 94 | 1010.2 |
| 20260906094829 | 0 | 0 | 0.0 | 0.0 | 0.00 | 0.13 | 0.00 | ||
| 20260906094330 | 76 | 0 | 0.0 | 0.0 | 0.00 | 0.13 | 0.00 | 93 | 1010.2 |
| 20260906093330 | 76 | 0 | 0.0 | 1.7 | 0.00 | 0.13 | 0.00 | 93 | 1010.2 |
| 20260906092830 | 76 | 0 | 0.0 | 1.7 | 0.00 | 0.13 | 0.00 | 93 | 1010.2 |
| 20260906092323 | 76 | 195 | 0.0 | 1.7 | 0.00 | 0.13 | 0.00 | 93 | 1010.1 |
| 20260906091823 | 76 | 0 | 0.0 | 0.0 | 0.00 | 0.13 | 0.00 | 93 | 1010.2 |
| 20260906091323 | 76 | 0 | 0.0 | 0.0 | 0.00 | 0.13 | 0.00 | 93 | 1010.1 |
| 20260906090828 | 76 | 0 | 0.0 | 0.0 | 0.00 | 0.13 | 0.00 | 93 | 1010.1 |
| 20260906085808 | 76 | 0 | 0.0 | 1.7 | 0.00 | 0.13 | 0.00 | 93 | 1010.0 |
| 20260906084808 | 76 | 0 | 0.0 | 1.7 | 0.00 | 0.13 | 0.00 | 93 | 1010.1 |
| 20260906084307 | 76 | 0 | 0.0 | 1.7 | 0.00 | 0.13 | 0.00 | 93 | 1010.0 |
| 20260906083807 | 76 | 0 | 0.0 | 0.9 | 0.00 | 0.13 | 0.00 | 93 | 1010.0 |
| 20260906082308 | 76 | 0 | 0.0 | 1.7 | 0.00 | 0.13 | 0.00 | 93 | 1009.9 |
| 20260906081808 | 76 | 198 | 0.0 | 1.7 | 0.00 | 0.13 | 0.00 | 93 | 1009.9 |
| 20260906080802 | 76 | 0 | 0.0 | 0.0 | 0.00 | 0.13 | 0.00 | 93 | 1009.8 |
| 20260906080303 | 76 | 0 | 0.0 | 0.0 | 0.00 | 0.13 | 0.00 | 93 | 1009.9 |
| 20260906075802 | 76 | 0 | 0.0 | 0.9 | 0.00 | 0.13 | 0.00 | 93 | 1009.8 |
| 20260906075305 | 76 | 0 | 0.0 | 0.9 | 0.00 | 0.13 | 0.00 | 93 | 1009.9 |
| 20260906074805 | 76 | 0 | 0.0 | 0.9 | 0.00 | 0.13 | 0.00 | 93 | 1009.9 |
| 20260906074302 | 76 | 0 | 0.0 | 0.9 | 0.00 | 0.13 | 0.00 | 93 | 1009.8 |
| 20260906072305 | 77 | 0 | 0.0 | 0.9 | 0.00 | 0.13 | 0.00 | 92 | 1009.9 |
| 20260906071802 | 77 | 0 | 0.0 | 0.9 | 0.00 | 0.13 | 0.00 | 92 | 1009.9 |
| 20260906071301 | 77 | 0 | 0.0 | 1.7 | 0.00 | 0.13 | 0.00 | 92 | 1009.9 |
| 20260906070802 | 77 | 0 | 0.0 | 1.7 | 0.00 | 0.13 | 0.00 | 92 | 1009.8 |
| 20260906070302 | 77 | 0 | 0.0 | 0.9 | 0.00 | 0.13 | 0.00 | 92 | 1009.9 |
| 20260906065802 | 77 | 0 | 0.0 | 1.7 | 0.00 | 0.13 | 0.00 | 92 | 1010.0 |
| 20260906065305 | 77 | 0 | 0.0 | 1.7 | 0.00 | 0.13 | 0.00 | 93 | 1010.0 |
| 20260906064802 | 77 | 0 | 0.0 | 0.9 | 0.00 | 0.13 | 0.00 | 93 | 1010.0 |
| 20260906064302 | 77 | 0 | 0.0 | 0.9 | 0.00 | 0.13 | 0.00 | 93 | 1010.0 |
| 20260906063805 | 77 | 0 | 0.0 | 0.0 | 0.00 | 0.13 | 0.00 | 93 | 1010.1 |
| 20260906063302 | 77 | 0 | 0.0 | 1.7 | 0.00 | 0.13 | 0.00 | 92 | 1010.0 |
| 20260906062802 | 77 | 0 | 0.0 | 1.7 | 0.00 | 0.13 | 0.00 | 92 | 1010.1 |
| 20260906062305 | 77 | 204 | 0.0 | 1.7 | 0.00 | 0.13 | 0.00 | 92 | 1010.2 |
| 20260906061802 | 77 | 0 | 0.0 | 0.0 | 0.00 | 0.13 | 0.00 | 92 | 1010.2 |
| 20260906061300 | 77 | 0 | 0.0 | 0.0 | 0.00 | 0.13 | 0.00 | 92 | 1010.2 |
| 20260906060801 | 77 | 0 | 0.0 | 0.0 | 0.00 | 0.13 | 0.00 | 92 | 1010.3 |
| 20260906060303 | 77 | 0 | 0.0 | 0.0 | 0.00 | 0.13 | 0.00 | 92 | 1010.3 |
| 20260906055803 | 78 | 0 | 0.0 | 0.0 | 0.00 | 0.13 | 0.00 | 92 | 1010.3 |
| 20260906055306 | 78 | 0 | 0.0 | 0.0 | 0.00 | 0.13 | 0.00 | 92 | 1010.4 |
| 20260906054802 | 78 | 0 | 0.0 | 0.9 | 0.00 | 0.13 | 0.00 | 92 | 1010.5 |
| 20260906054302 | 78 | 0 | 0.0 | 0.9 | 0.00 | 0.13 | 0.00 | 92 | 1010.5 |
| 20260906053302 | 78 | 0 | 0.0 | 0.0 | 0.00 | 0.13 | 0.00 | 92 | 1010.5 |
| 20260906052805 | 78 | 0 | 0.0 | 0.9 | 0.00 | 0.13 | 0.00 | 91 | 1010.6 |
| 20260906051802 | 78 | 0 | 0.0 | 0.9 | 0.00 | 0.13 | 0.00 | 91 | 1010.6 |
| 20260906051301 | 78 | 0 | 0.0 | 0.0 | 0.00 | 0.13 | 0.00 | 91 | 1010.6 |
| 20260906050800 | 79 | 0 | 0.0 | 0.0 | 0.00 | 0.13 | 0.00 | 91 | 1010.5 |
| 20260906050302 | 79 | 0 | 0.0 | 0.0 | 0.00 | 0.13 | 0.00 | 91 | 1010.4 |
| 20260906045801 | 79 | 0 | 0.0 | 1.7 | 0.00 | 0.13 | 0.00 | 91 | 1010.4 |
| 20260906045300 | 79 | 0 | 0.9 | 1.7 | 0.00 | 0.13 | 0.00 | 91 | 1010.5 |
| 20260906044801 | 79 | 0 | 0.0 | 1.7 | 0.00 | 0.13 | 0.00 | 91 | 1010.5 |
| 20260906044300 | 79 | 0 | 0.0 | 1.7 | 0.00 | 0.13 | 0.00 | 91 | 1010.5 |
| 20260906043800 | 79 | 0 | 0.0 | 0.9 | 0.00 | 0.13 | 0.00 | 90 | 1010.6 |
| 20260906043301 | 79 | 0 | 0.0 | 0.9 | 0.00 | 0.13 | 0.00 | 90 | 1010.6 |
| 20260906042800 | 79 | 0 | 0.0 | 1.7 | 0.00 | 0.13 | 0.00 | 90 | 1010.6 |
| 20260906041800 | 79 | 197 | 0.9 | 1.7 | 0.00 | 0.13 | 0.00 | 91 | 1010.7 |
| 20260906041301 | 79 | 202 | 0.0 | 1.7 | 0.00 | 0.13 | 0.00 | 91 | 1010.8 |
| 20260906040800 | 79 | 0 | 0.0 | 1.7 | 0.00 | 0.13 | 0.00 | 91 | 1010.8 |
| 20260906040301 | 79 | 0 | 0.0 | 0.0 | 0.00 | 0.13 | 0.00 | 91 | 1010.9 |
| 20260906035305 | 79 | 0 | 0.0 | 0.0 | 0.00 | 0.13 | 0.13 | 91 | 1011.0 |
| 20260906034300 | 80 | 0 | 0.0 | 0.0 | 0.00 | 0.13 | 0.13 | 91 | 1011.2 |
| 20260906033800 | 80 | 0 | 0.0 | 0.0 | 0.00 | 0.13 | 0.13 | 91 | 1011.2 |
| 20260906033301 | 80 | 0 | 0.0 | 1.7 | 0.00 | 0.13 | 0.13 | 91 | 1011.2 |
| 20260906032801 | 80 | 0 | 0.0 | 1.7 | 0.00 | 0.13 | 0.13 | 91 | 1011.2 |
| 20260906031800 | 80 | 0 | 0.0 | 1.7 | 0.00 | 0.13 | 0.13 | 91 | 1011.2 |
| 20260906030800 | 80 | 0 | 0.0 | 1.7 | 0.00 | 0.13 | 0.13 | 91 | 1011.4 |
| 20260906030301 | 80 | 195 | 0.0 | 1.7 | 0.00 | 0.13 | 0.13 | 91 | 1011.5 |
| 20260906024801 | 80 | 0 | 0.0 | 0.9 | 0.00 | 0.13 | 0.13 | 91 | 1011.5 |
| 20260906023800 | 80 | 0 | 0.0 | 0.0 | 0.00 | 0.13 | 0.13 | 91 | 1011.1 |
| 20260906023301 | 80 | 0 | 0.0 | 0.0 | 0.00 | 0.13 | 0.13 | 91 | 1011.2 |
| 20260906022801 | 80 | 0 | 0.0 | 0.0 | 0.00 | 0.13 | 0.13 | 90 | 1011.2 |
| 20260906022301 | 80 | 0 | 0.0 | 0.0 | 0.00 | 0.13 | 0.13 | 90 | 1011.1 |
| 20260906021802 | 80 | 0 | 0.0 | 0.0 | 0.00 | 0.13 | 0.13 | 90 | 1011.2 |
| 20260906021301 | 80 | 0 | 0.0 | 0.0 | 0.00 | 0.13 | 0.13 | 90 | 1011.2 |
| 20260906020801 | 80 | 0 | 0.0 | 0.0 | 0.00 | 0.13 | 0.13 | 90 | 1011.2 |
| 20260906020301 | 80 | 0 | 0.0 | 0.9 | 0.00 | 0.13 | 0.13 | 90 | 1011.1 |
| 20260906015802 | 80 | 0 | 0.0 | 0.9 | 0.00 | 0.13 | 0.13 | 90 | 1011.0 |
| 20260906015301 | 80 | 0 | 0.0 | 0.0 | 0.00 | 0.13 | 0.13 | 90 | 1010.9 |
| 20260906014800 | 80 | 0 | 0.0 | 0.0 | 0.00 | 0.13 | 0.13 | 90 | 1010.7 |
| 20260906013801 | 80 | 0 | 0.0 | 0.9 | 0.00 | 0.13 | 0.13 | 90 | 1010.6 |
| 20260906013301 | 80 | 0 | 0.0 | 0.9 | 0.00 | 0.13 | 0.13 | 90 | 1010.6 |
| 20260906012802 | 80 | 171 | 0.0 | 0.9 | 0.00 | 0.13 | 0.13 | 90 | 1010.4 |
| 20260906012306 | 80 | 0 | 0.0 | 0.9 | 0.00 | 0.13 | 0.13 | 90 | 1010.3 |
| 20260906011801 | 81 | 0 | 0.0 | 0.0 | 0.00 | 0.13 | 0.13 | 90 | 1010.4 |
| 20260906011300 | 81 | 0 | 0.0 | 0.0 | 0.00 | 0.13 | 0.13 | 89 | 1010.4 |
| 20260906005802 | 81 | 0 | 0.0 | 0.9 | 0.00 | 0.13 | 0.13 | 89 | 1010.3 |
| 20260906005306 | 81 | 0 | 0.0 | 0.9 | 0.00 | 0.13 | 0.13 | 89 | 1010.3 |
| 20260906004801 | 81 | 0 | 0.0 | 0.0 | 0.00 | 0.13 | 0.13 | 89 | 1010.2 |
| 20260906004302 | 81 | 0 | 0.0 | 0.0 | 0.00 | 0.13 | 0.13 | 89 | 1010.2 |
| 20260906003802 | 81 | 0 | 0.0 | 0.0 | 0.00 | 0.13 | 0.13 | 89 | 1010.1 |
| 20260906003303 | 82 | 0 | 0.0 | 0.0 | 0.00 | 0.13 | 0.13 | 88 | 1010.0 |
| 20260906002802 | 82 | 0 | 0.0 | 0.0 | 0.00 | 0.13 | 0.13 | 88 | 1009.9 |
| 20260906002305 | 82 | 0 | 0.0 | 0.0 | 0.00 | 0.13 | 0.13 | 88 | 1009.9 |
| 20260906001806 | 82 | 0 | 0.0 | 0.0 | 0.00 | 0.13 | 0.13 | 88 | 1009.7 |
| 20260906000303 | 83 | 0 | 0.0 | 0.0 | 0.00 | 0.13 | 0.13 | 87 | 1009.6 |
| 20260905235802 | 83 | 0 | 0.0 | 0.0 | 0.00 | 0.13 | 0.13 | 86 | 1009.5 |
| 20260905235306 | 84 | 0 | 0.0 | 0.0 | 0.00 | 0.13 | 0.13 | 86 | 1009.4 |
| 20260905234802 | 84 | 0 | 0.0 | 0.0 | 0.00 | 0.13 | 0.13 | 85 | 1009.5 |
| 20260905234301 | 84 | 0 | 0.0 | 0.0 | 0.00 | 0.13 | 0.13 | 85 | 1009.5 |
| 20260905233800 | 84 | 0 | 0.0 | 0.0 | 0.00 | 0.13 | 0.13 | 85 | 1009.6 |
| 20260905232801 | 85 | 0 | 0.0 | 0.9 | 0.00 | 0.13 | 0.13 | 84 | 1009.6 |
| 20260905232300 | 86 | 0 | 0.0 | 0.0 | 0.00 | 0.13 | 0.13 | 83 | 1009.5 |
| 20260905231801 | 87 | 0 | 0.0 | 0.9 | 0.00 | 0.13 | 0.13 | 82 | 1009.4 |
| 20260905230801 | 88 | 0 | 0.0 | 1.7 | 0.00 | 0.13 | 0.13 | 80 | 1009.3 |
| 20260905230302 | 88 | 0 | 0.0 | 0.9 | 0.00 | 0.13 | 0.13 | 79 | 1009.5 |
| 20260905225801 | 88 | 0 | 0.0 | 0.9 | 0.00 | 0.13 | 0.13 | 79 | 1009.7 |
| 20260905225301 | 88 | 0 | 0.0 | 1.7 | 0.00 | 0.13 | 0.13 | 79 | 1009.8 |
| 20260905224300 | 88 | 176 | 0.0 | 1.7 | 0.00 | 0.13 | 0.13 | 78 | 1010.1 |
| 20260905223802 | 88 | 0 | 0.0 | 2.6 | 0.00 | 0.13 | 0.13 | 78 | 1010.1 |
| 20260905223301 | 89 | 0 | 0.9 | 2.6 | 0.00 | 0.13 | 0.13 | 77 | 1010.1 |
| 20260905222301 | 91 | 204 | 0.0 | 1.7 | 0.00 | 0.13 | 0.13 | 71 | 1010.1 |
| 20260905221801 | 91 | 0 | 0.0 | 1.7 | 0.00 | 0.13 | 0.13 | 71 | 1010.2 |
| 20260905221301 | 91 | 0 | 0.0 | 1.7 | 0.00 | 0.13 | 0.13 | 73 | 1010.2 |
| 20260905220801 | 91 | 0 | 0.9 | 2.6 | 0.00 | 0.13 | 0.13 | 74 | 1010.1 |
| 20260905220301 | 92 | 118 | 0.0 | 2.6 | 0.00 | 0.13 | 0.13 | 70 | 1010.1 |
| 20260905215801 | 92 | 0 | 0.0 | 1.7 | 0.00 | 0.13 | 0.13 | 68 | 1010.2 |
| 20260905214800 | 92 | 0 | 0.0 | 4.3 | 0.00 | 0.13 | 0.13 | 67 | 1010.2 |
| 20260905213800 | 90 | 357 | 0.0 | 3.5 | 0.00 | 0.13 | 0.13 | 69 | 1010.3 |
| 20260905213301 | 89 | 0 | 0.0 | 3.5 | 0.00 | 0.13 | 0.13 | 73 | 1010.2 |
| 20260905212305 | 89 | 199 | 0.9 | 3.5 | 0.00 | 0.13 | 0.13 | 75 | 1010.3 |
| 20260905211802 | 89 | 0 | 0.9 | 6.1 | 0.00 | 0.13 | 0.13 | 76 | 1010.3 |
| 20260905211302 | 89 | 214 | 1.7 | 6.1 | 0.00 | 0.13 | 0.13 | 75 | 1010.3 |
| 20260905205801 | 87 | 241 | 0.9 | 4.3 | 0.00 | 0.13 | 0.13 | 79 | 1010.2 |
| 20260905205302 | 86 | 219 | 2.6 | 5.2 | 0.00 | 0.13 | 0.13 | 84 | 1010.2 |
| 20260905204804 | 85 | 126 | 3.5 | 5.2 | 0.00 | 0.13 | 0.13 | 84 | 1010.2 |
| 20260905204301 | 85 | 154 | 3.5 | 4.3 | 0.00 | 0.13 | 0.13 | 85 | 1010.3 |
| 20260905203800 | 85 | 93 | 1.7 | 4.3 | 0.00 | 0.13 | 0.13 | 86 | 1010.2 |
| 20260905203301 | 85 | 132 | 1.7 | 3.5 | 0.00 | 0.13 | 0.13 | 85 | 1010.3 |
| 20260905202801 | 84 | 53 | 1.7 | 3.5 | 0.00 | 0.14 | 0.13 | 87 | 1010.3 |
| 20260905202301 | 84 | 92 | 0.9 | 2.6 | 0.00 | 0.14 | 0.13 | 87 | 1010.3 |
| 20260905201301 | 84 | 177 | 0.9 | 2.6 | 0.00 | 0.14 | 0.13 | 88 | 1010.5 |
| 20260905200305 | 84 | 76 | 0.0 | 2.6 | 0.00 | 0.14 | 0.13 | 88 | 1010.5 |
| 20260905195301 | 84 | 0 | 0.0 | 1.7 | 0.00 | 0.14 | 0.13 | 88 | 1010.6 |
| 20260905194801 | 83 | 0 | 0.0 | 1.7 | 0.00 | 0.14 | 0.13 | 89 | 1010.8 |
| 20260905194302 | 83 | 0 | 0.9 | 1.7 | 0.00 | 0.15 | 0.13 | 88 | 1010.8 |
| 20260905193802 | 84 | 153 | 0.9 | 1.7 | 0.00 | 0.16 | 0.13 | 88 | 1010.9 |
| 20260905193301 | 84 | 143 | 0.9 | 2.6 | 0.00 | 0.17 | 0.13 | 87 | 1010.7 |
| 20260905192802 | 84 | 150 | 0.0 | 2.6 | 0.00 | 0.30 | 0.13 | 85 | 1010.6 |
| 20260905192301 | 83 | 0 | 0.0 | 1.7 | 0.00 | 0.54 | 0.13 | 87 | 1010.7 |
| 20260905191802 | 82 | 0 | 0.0 | 1.7 | 0.00 | 0.82 | 0.13 | 88 | 1010.8 |
| 20260905191301 | 81 | 0 | 0.0 | 0.9 | 0.02 | 1.01 | 0.13 | 90 | 1011.1 |
| 20260905190802 | 81 | 0 | 0.0 | 0.9 | 0.06 | 1.14 | 0.13 | 90 | 1011.3 |
| 20260905190302 | 81 | 0 | 0.0 | 0.9 | 0.09 | 1.19 | 0.13 | 91 | 1011.3 |
| 20260905185802 | 81 | 0 | 0.0 | 0.0 | 0.11 | 1.19 | 0.13 | 91 | 1011.3 |
| 20260905185305 | 80 | 0 | 0.0 | 1.7 | 0.11 | 1.19 | 0.13 | 91 | 1011.1 |
| 20260905184802 | 80 | 0 | 0.0 | 1.7 | 0.11 | 1.19 | 0.13 | 91 | 1011.1 |
| 20260905184300 | 80 | 0 | 0.0 | 0.9 | 0.11 | 1.19 | 0.13 | 92 | 1011.1 |
| 20260905183800 | 80 | 0 | 0.0 | 1.7 | 0.11 | 1.19 | 0.13 | 92 | 1011.3 |
| 20260905183301 | 79 | 0 | 0.0 | 2.6 | 0.11 | 1.19 | 0.13 | 91 | 1011.5 |
| 20260905182801 | 79 | 164 | 0.9 | 2.6 | 0.11 | 1.19 | 0.13 | 91 | 1011.5 |
| 20260905182306 | 79 | 174 | 0.0 | 1.7 | 0.11 | 1.19 | 0.13 | 90 | 1011.5 |
| 20260905180800 | 81 | 150 | 1.7 | 12.2 | 0.05 | 1.13 | 0.07 | 88 | 1011.7 |
| 20260905180302 | 82 | 299 | 5.2 | 12.2 | 0.02 | 1.10 | 0.04 | 85 | 1011.8 |
| 20260905175801 | 85 | 301 | 7.0 | 13.0 | 0.00 | 1.09 | 0.02 | 77 | 1011.6 |
| 20260905175301 | 87 | 319 | 4.3 | 13.0 | 0.00 | 1.09 | 0.02 | 75 | 1011.6 |
| 20260905174801 | 88 | 275 | 3.5 | 7.8 | 0.00 | 1.09 | 0.02 | 73 | 1011.5 |
| 20260905174300 | 88 | 308 | 3.5 | 7.8 | 0.00 | 1.10 | 0.02 | 71 | 1011.6 |
| 20260905173801 | 88 | 316 | 3.5 | 7.0 | 0.00 | 1.10 | 0.02 | 73 | 1011.7 |
| 20260905173301 | 88 | 327 | 3.5 | 7.0 | 0.00 | 1.10 | 0.02 | 72 | 1011.6 |
| 20260905172801 | 89 | 17 | 3.5 | 7.0 | 0.00 | 1.10 | 0.02 | 72 | 1011.7 |
| 20260905172301 | 87 | 302 | 3.5 | 8.7 | 0.00 | 1.10 | 0.02 | 76 | 1011.8 |
| 20260905171801 | 87 | 337 | 3.5 | 8.7 | 0.00 | 1.10 | 0.02 | 77 | 1011.9 |
| 20260905171300 | 88 | 345 | 2.6 | 7.0 | 0.00 | 1.10 | 0.02 | 76 | 1012.0 |
| 20260905170301 | 88 | 17 | 2.6 | 6.1 | 0.00 | 1.10 | 0.02 | 74 | 1012.1 |
| 20260905165801 | 86 | 277 | 1.7 | 5.2 | 0.00 | 1.10 | 0.02 | 78 | 1012.2 |
| 20260905165300 | 86 | 313 | 2.6 | 6.1 | 0.00 | 1.10 | 0.02 | 79 | 1012.4 |
| 20260905164800 | 87 | 290 | 2.6 | 6.1 | 0.00 | 1.10 | 0.02 | 78 | 1012.4 |
| 20260905163800 | 87 | 327 | 1.7 | 6.1 | 0.02 | 1.10 | 0.02 | 75 | 1012.5 |
| 20260905163300 | 86 | 14 | 3.5 | 8.7 | 0.02 | 1.10 | 0.02 | 78 | 1012.5 |
| 20260905162801 | 87 | 33 | 1.7 | 8.7 | 0.02 | 1.10 | 0.02 | 77 | 1012.6 |
| 20260905162301 | 86 | 318 | 0.9 | 6.1 | 0.02 | 1.10 | 0.02 | 80 | 1012.7 |
| 20260905161801 | 85 | 0 | 1.7 | 5.2 | 0.02 | 1.10 | 0.02 | 82 | 1012.8 |
| 20260905161301 | 86 | 242 | 1.7 | 5.2 | 0.02 | 1.10 | 0.02 | 80 | 1012.9 |
| 20260905160800 | 86 | 318 | 1.7 | 5.2 | 0.02 | 1.10 | 0.02 | 78 | 1012.9 |
| 20260905160301 | 84 | 320 | 2.6 | 5.2 | 0.02 | 1.10 | 0.02 | 85 | 1013.0 |
| 20260905155801 | 84 | 309 | 2.6 | 5.2 | 0.02 | 1.10 | 0.02 | 85 | 1013.0 |
| 20260905155301 | 84 | 286 | 1.7 | 5.2 | 0.02 | 1.10 | 0.02 | 84 | 1013.1 |
| 20260905154800 | 84 | 243 | 2.6 | 7.8 | 0.02 | 1.10 | 0.02 | 84 | 1013.2 |
| 20260905154301 | 85 | 295 | 3.5 | 7.8 | 0.00 | 1.09 | 0.00 | 82 | 1013.2 |
| 20260905153801 | 86 | 259 | 2.6 | 7.0 | 0.00 | 1.08 | 0.00 | 79 | 1013.1 |
| 20260905152801 | 84 | 303 | 1.7 | 5.2 | 0.00 | 1.08 | 0.00 | 83 | 1013.3 |
| 20260905152301 | 84 | 302 | 1.7 | 7.0 | 0.00 | 1.08 | 0.00 | 84 | 1013.4 |
| 20260905150801 | 84 | 330 | 1.7 | 5.2 | 0.00 | 1.08 | 0.00 | 83 | 1013.3 |
| 20260905145801 | 83 | 203 | 2.6 | 7.0 | 0.00 | 1.08 | 0.00 | 87 | 1013.4 |
| 20260905145301 | 83 | 313 | 0.9 | 7.0 | 0.00 | 1.08 | 0.00 | 86 | 1013.5 |
| 20260905144801 | 83 | 0 | 0.9 | 3.5 | 0.00 | 1.08 | 0.00 | 86 | 1013.5 |
| 20260905144301 | 83 | 306 | 0.0 | 3.5 | 0.00 | 1.08 | 0.00 | 87 | 1013.5 |
| 20260905143800 | 83 | 0 | 0.9 | 4.3 | 0.00 | 1.08 | 0.00 | 86 | 1013.5 |
| 20260905142801 | 82 | 316 | 0.9 | 2.6 | 0.00 | 1.08 | 0.00 | 87 | 1013.5 |
| 20260905142301 | 82 | 177 | 0.9 | 5.2 | 0.00 | 1.08 | 0.00 | 87 | 1013.5 |
| 20260905141800 | 82 | 284 | 1.7 | 5.2 | 0.00 | 1.08 | 0.00 | 88 | 1013.5 |
| 20260905141302 | 82 | 311 | 0.9 | 5.2 | 0.00 | 1.08 | 0.00 | 87 | 1013.4 |
| 20260905140801 | 82 | 293 | 0.9 | 4.3 | 0.00 | 1.08 | 0.00 | 88 | 1013.3 |
| 20260905140301 | 82 | 0 | 1.7 | 6.1 | 0.00 | 1.08 | 0.00 | 88 | 1013.4 |
| 20260905135801 | 82 | 182 | 1.7 | 6.1 | 0.00 | 1.08 | 0.00 | 88 | 1013.3 |
| 20260905135306 | 82 | 324 | 1.7 | 5.2 | 0.00 | 1.08 | 0.00 | 89 | 1013.3 |
| 20260905134801 | 81 | 276 | 0.9 | 5.2 | 0.00 | 1.08 | 0.00 | 92 | 1013.3 |